1505048400.13,19375,15.75,73590.8,6.09,4.15,4.27,0,*7A
1505048401.36,19376,15.75,73586.0,6.13,4.19,4.31,0,*79
1505048402.57,19377,15.75,73590.0,6.09,4.11,4.11,0,*79
1505048403.83,19378,15.75,73584.3,6.09,4.01,4.05,0,*72
1505048405.08,19379,15.75,73584.0,6.13,3.97,3.97,0,*7C
1505048406.34,19380,15.75,73590.8,6.09,4.01,4.05,0,*75
1505048407.55,19381,15.75,73590.3,6.09,4.23,4.23,0,*70
1505048408.75,19382,15.75,73590.8,6.09,4.23,4.27,0,*77
1505048409.97,19383,15.75,73588.0,6.09,4.23,4.33,0,*73
1505048411.19,19384,15.75,73592.5,6.09,4.37,4.37,0,*75
1505048412.39,19385,15.75,73590.8,6.09,4.45,4.49,0,*78
1505048413.57,19386,15.75,73598.5,6.07,4.49,4.49,0,*79
1505048414.78,19387,15.75,73592.5,6.09,4.45,4.45,0,*76
1505048416.0,19388,15.75,73594.8,6.09,4.27,4.37,0,*78
1505048417.22,19389,15.75,73598.3,6.09,4.27,4.33,0,*7D
1505048418.43,19390,15.75,73594.5,6.09,4.15,4.27,0,*71
1505048419.62,19391,15.75,73598.3,6.07,4.11,4.23,0,*7E
1505048420.8,19392,15.75,73594.5,6.07,4.15,4.27,0,*7D
1505048421.99,19393,15.75,73596.0,6.07,4.15,4.23,0,*78
1505048423.18,19394,15.75,73592.8,6.07,4.23,4.23,0,*7A
1505048424.36,19395,15.75,73596.0,6.07,4.11,4.11,0,*7B
1505048425.57,19396,15.75,73590.3,6.07,4.01,4.11,0,*79
1505048426.76,19397,15.75,73592.5,6.07,4.15,4.15,0,*79
1505048427.94,19398,15.75,73596.5,6.07,4.23,4.23,0,*76
1505048429.16,19399,15.75,73598.8,6.09,4.27,4.45,0,*7D
1505048430.34,19400,15.75,73594.0,6.07,4.33,4.27,0,*75
1505048431.55,19401,15.75,73592.5,6.09,4.27,4.27,0,*7F
1505048432.73,19402,15.75,73596.3,6.07,4.23,4.27,0,*76
1505048433.93,19403,15.75,73592.8,6.07,4.37,4.37,0,*73
1505048435.12,19404,15.75,73594.5,6.07,4.37,4.45,0,*71
1505048436.33,19405,15.75,73592.8,6.07,4.45,4.59,0,*78
1505048437.52,19406,15.75,73594.8,6.07,4.45,4.57,0,*75
1505048438.71,19407,15.75,73592.3,6.07,4.45,4.57,0,*74
1505048439.9,19408,15.75,73594.5,6.07,4.37,4.49,0,*71
1505048441.09,19409,15.75,73596.8,6.07,4.37,4.49,0,*70
1505048442.27,19410,15.75,73592.5,6.07,4.45,4.49,0,*7D
1505048443.45,19411,15.75,73592.8,6.07,4.45,4.45,0,*70
1505048444.66,19412,15.75,73594.3,6.09,4.49,4.57,0,*72
1505048445.93,19413,15.75,73590.5,6.09,4.59,4.59,0,*7C
1505048447.16,19414,15.75,73594.0,6.09,4.57,4.63,0,*7C
1505048448.39,19415,15.75,73592.8,6.09,4.49,4.59,0,*7B
1505048449.6,19416,15.75,73592.3,6.09,4.45,4.45,0,*79
1505048450.81,19417,15.75,73594.0,6.13,4.53,4.53,0,*73
1505048452.02,19418,15.75,73592.8,6.09,4.49,4.57,0,*78
1505048453.25,19419,15.75,73598.8,6.09,4.57,4.59,0,*78
1505048454.46,19420,15.75,73594.3,6.09,4.45,4.49,0,*70
1505048455.67,19421,15.75,73598.3,6.09,4.49,4.57,0,*72
1505048456.94,19422,15.75,73596.8,6.09,4.59,4.63,0,*77
1505048458.2,19423,15.75,73596.3,6.13,4.59,4.75,0,*7A
1505048459.46,19424,15.75,73596.0,6.09,4.59,4.59,0,*78
1505048460.72,19425,15.75,73598.8,6.13,4.75,4.75,0,*72
1505048461.98,19426,15.75,73598.5,6.13,4.75,4.75,0,*71
1505048463.24,19427,15.75,73602.0,6.13,4.75,4.75,0,*70
1505048464.5,19428,15.75,73596.5,6.13,4.67,4.75,0,*7C
1505048465.76,19429,15.75,73598.8,6.13,4.63,4.67,0,*7A
1505048467.01,19430,15.75,73596.3,6.13,4.63,4.59,0,*7F
1505048468.22,19431,15.75,73600.3,6.15,4.53,4.63,0,*72
1505048469.45,19432,15.75,73596.5,6.13,4.53,4.59,0,*7E
1505048470.68,19433,15.75,73594.0,6.13,4.49,4.59,0,*74
1505048471.93,19434,15.75,73598.5,6.13,4.59,4.59,0,*72
1505048473.17,19435,15.75,73600.3,6.15,4.59,4.63,0,*7C
1505048474.43,19436,15.75,73600.8,6.17,4.63,4.63,0,*74
1505048475.67,19437,15.75,73600.8,6.15,4.63,4.63,0,*77
1505048476.9,19438,15.75,73602.3,6.17,4.57,4.63,0,*7D
1505048478.14,19439,15.75,73598.3,6.15,4.59,4.63,0,*70
1505048479.34,19440,15.75,73598.8,6.15,4.49,4.59,0,*76
1505048480.55,19441,15.75,73598.3,6.17,4.53,4.53,0,*74
1505048481.73,19442,15.75,73596.3,6.15,4.53,4.53,0,*75
1505048482.97,19443,15.75,73594.5,6.15,4.75,4.75,0,*74
1505048484.18,19444,15.75,73598.0,6.15,4.75,4.85,0,*7C
1505048485.41,19445,15.75,73598.8,6.15,4.79,4.79,0,*72
1505048486.61,19446,15.75,73600.3,6.17,4.81,4.81,0,*73
1505048487.87,19447,15.75,73598.0,6.17,4.79,4.79,0,*72
1505048489.11,19448,15.75,73598.3,6.15,4.75,4.75,0,*7F
1505048490.32,19449,15.75,73596.8,6.17,4.41,4.45,0,*78
1505048491.53,19450,15.75,73598.5,6.17,4.33,4.41,0,*71
1505048492.77,19451,15.75,73598.3,6.17,4.31,4.33,0,*77
1505048493.94,19452,15.75,73596.5,6.19,4.49,4.49,0,*78
1505048495.18,19453,15.75,73600.5,6.15,4.59,4.63,0,*7C
1505048496.4,19454,15.75,73596.0,6.19,4.71,4.81,0,*71
1505048497.66,19455,15.75,73596.5,6.17,4.63,4.71,0,*72
1505048498.9,19456,15.75,73598.8,6.19,4.67,4.75,0,*7F
1505048500.16,19457,15.75,73600.5,6.17,4.79,4.79,0,*73
1505048501.39,19458,15.75,73602.0,6.17,4.79,4.81,0,*7B
1505048502.62,19459,15.75,73602.3,6.17,4.79,4.89,0,*72
1505048503.83,19460,15.75,73598.3,6.19,4.81,4.93,0,*7A
1505048505.07,19461,15.75,73602.0,6.19,4.75,4.75,0,*78
1505048506.31,19462,15.75,73596.5,6.21,4.71,4.71,0,*70
1505048507.55,19463,15.75,73598.0,6.19,4.67,4.75,0,*79
1505048508.76,19464,15.75,73596.3,6.19,4.75,4.81,0,*76
1505048509.96,19465,15.75,73598.3,6.21,4.75,4.81,0,*7C
1505048511.14,19466,15.75,73602.8,6.21,4.81,4.81,0,*74
1505048512.37,19467,15.75,73596.5,6.21,4.93,4.97,0,*71
1505048513.55,19468,15.75,73598.8,6.21,4.81,4.85,0,*7E
1505048514.73,19469,15.75,73598.3,6.21,4.81,4.81,0,*7B
1505048515.97,19470,15.75,73600.3,6.21,4.71,4.71,0,*73
1505048517.2,19471,15.75,73598.3,6.23,4.79,4.89,0,*7F
1505048518.44,19472,15.75,73600.0,6.23,4.85,4.97,0,*70
1505048519.62,19473,15.75,73600.8,6.25,4.85,4.89,0,*78
1505048520.88,19474,15.75,73596.5,6.23,4.97,4.97,0,*75
1505048522.13,19475,15.75,73596.5,6.23,4.89,4.97,0,*7B
1505048523.39,19476,15.75,73598.5,6.23,4.79,4.79,0,*77
1505048524.59,19477,15.75,73598.3,6.23,4.85,4.89,0,*7A
1505048525.84,19478,15.75,73598.5,6.25,4.97,5.01,0,*71
1505048527.03,19479,15.75,73598.8,6.25,5.07,5.11,0,*79
1505048528.25,19480,15.75,73602.0,6.25,5.01,5.07,0,*7E
1505048529.49,19481,15.75,73596.8,6.27,4.89,4.93,0,*70
1505048530.73,19482,15.75,73596.5,6.27,4.89,4.93,0,*73
1505048531.97,19483,15.75,73596.0,6.27,4.89,4.93,0,*72
1505048533.2,19484,15.75,73596.8,6.27,4.79,4.81,0,*79
1505048534.47,19485,15.75,73598.3,6.27,4.75,4.75,0,*7F
1505048535.73,19486,15.75,73600.3,6.27,4.79,4.79,0,*7C
1505048536.93,19487,15.75,73596.5,6.29,4.79,4.89,0,*7C
1505048538.14,19488,15.75,73602.0,6.27,4.89,4.89,0,*72
1505048539.38,19489,15.75,73600.5,6.29,4.93,5.01,0,*77
1505048540.59,19490,15.75,73600.0,6.29,4.89,4.93,0,*7E
1505048541.85,19491,15.75,73600.3,6.31,4.93,5.05,0,*73
1505048543.05,19492,15.75,73602.0,6.31,5.07,5.15,0,*7D
1505048544.29,19493,15.75,73602.8,6.29,5.05,5.05,0,*76
1505048545.49,19494,15.75,73606.8,6.31,5.07,5.15,0,*7B
1505048546.73,19495,15.75,73606.0,6.31,4.85,4.93,0,*7E
1505048547.96,19496,15.75,73604.8,6.31,4.81,4.93,0,*79
1505048549.22,19497,15.75,73608.0,6.31,4.93,4.97,0,*7F
1505048550.46,19498,15.75,73608.5,6.37,4.97,5.01,0,*7C
1505048551.7,19499,15.75,73606.5,6.35,5.01,5.07,0,*77
1505048552.9,19500,15.75,73604.5,6.35,4.81,4.89,0,*78
1505048554.17,19501,15.75,73606.8,6.35,4.75,4.75,0,*71
1505048555.4,19502,15.75,73602.8,6.35,4.89,4.97,0,*7D
1505048556.6,19503,15.75,73600.3,6.35,4.81,4.81,0,*73
1505048557.81,19504,15.75,73600.3,6.35,4.81,4.85,0,*70
1505048559.02,19505,15.75,73606.8,6.35,4.53,4.53,0,*75
1505048560.23,19506,15.75,73606.5,6.35,4.41,4.41,0,*76
1505048561.49,19507,15.75,73604.3,6.35,4.59,4.59,0,*77
1505048562.72,19508,15.75,73600.5,6.35,4.53,4.63,0,*7B
1505048563.98,19509,15.75,73604.8,6.35,4.59,4.63,0,*70
1505048565.19,19510,15.75,73602.8,6.35,4.53,4.53,0,*71
1505048566.45,19511,15.75,73604.5,6.35,4.63,4.75,0,*77
1505048567.72,19512,15.75,73602.5,6.35,4.63,4.71,0,*70
1505048568.98,19513,15.75,73602.8,6.35,4.63,4.71,0,*71
1505048570.18,19514,15.75,73600.8,6.31,4.45,4.49,0,*7D
1505048571.44,19515,15.75,73602.5,6.35,4.59,4.59,0,*74
1505048572.67,19516,15.75,73602.5,6.35,4.49,4.59,0,*76
1505048573.93,19517,15.75,73600.0,6.35,4.59,4.63,0,*7F
1505048575.15,19518,15.75,73602.3,6.35,4.49,4.59,0,*78
1505048576.37,19519,15.75,73600.0,6.31,4.37,4.45,0,*79
1505048577.57,19520,15.75,73600.5,6.31,4.37,4.49,0,*7F
1505048578.8,19521,15.75,73600.0,6.35,4.49,4.59,0,*72
1505048580.01,19522,15.75,73600.0,6.35,4.53,4.53,0,*70
1505048581.27,19523,15.75,73602.0,6.31,4.59,4.67,0,*78
1505048582.5,19524,15.75,73602.8,6.31,4.57,4.59,0,*7C
1505048583.72,19525,15.75,73600.5,6.35,4.49,4.59,0,*76
1505048584.92,19526,15.75,73602.0,6.31,4.45,4.49,0,*7C
1505048586.13,19527,15.75,73600.8,6.31,4.49,4.57,0,*7E
1505048587.33,19528,15.75,73604.0,6.31,4.45,4.57,0,*7D
1505048588.57,19529,15.75,73604.8,6.35,4.53,4.63,0,*78
1505048589.8,19530,15.75,73600.8,6.31,4.49,4.59,0,*76
1505048591.06,19531,15.75,73600.5,6.31,4.59,4.71,0,*7C
1505048592.27,19532,15.75,73600.5,6.35,4.41,4.53,0,*72
1505048593.47,19533,15.75,73602.8,6.31,4.45,4.49,0,*78
1505048594.67,19534,15.75,73600.0,6.31,4.45,4.45,0,*73
1505048595.88,19535,15.75,73600.3,6.31,4.37,4.45,0,*77
1505048597.09,19536,15.75,73604.3,6.31,4.45,4.45,0,*71
1505048598.29,19537,15.75,73602.0,6.35,4.41,4.49,0,*7C
1505048599.52,19538,15.75,73602.5,6.31,4.49,4.67,0,*73
1505048600.78,19539,15.75,73604.0,6.31,4.59,4.59,0,*7E
1505048602.0,19540,15.75,73606.3,6.31,4.49,4.59,0,*71
1505048603.24,19541,15.75,73606.8,6.31,4.71,4.81,0,*7E
1505048604.5,19542,15.75,73606.5,6.35,4.59,4.71,0,*7C
1505048605.74,19543,15.75,73604.8,6.31,4.57,4.71,0,*77
1505048606.97,19544,15.75,73608.3,6.31,4.57,4.67,0,*77
1505048608.21,19545,15.75,73608.8,6.31,4.59,4.57,0,*7B
1505048609.47,19546,15.75,73608.0,6.31,4.59,4.71,0,*7C
1505048610.74,19547,15.75,73608.3,6.31,4.59,4.71,0,*7D
1505048612.0,19548,15.75,73604.5,6.31,4.59,4.71,0,*72
1505048613.27,19549,15.75,73612.5,6.31,4.59,4.71,0,*73
1505048614.53,19550,15.75,73610.8,6.35,4.71,4.79,0,*7D
1505048615.74,19551,15.75,73612.5,6.35,4.81,4.85,0,*70
1505048616.97,19552,15.75,73614.3,6.35,4.75,4.81,0,*7C
1505048618.17,19553,15.75,73608.8,6.35,4.81,4.81,0,*76
1505048619.43,19554,15.75,73610.8,6.35,4.63,4.71,0,*72
1505048620.67,19555,15.75,73612.0,6.31,4.57,4.67,0,*77
1505048621.9,19556,15.75,73614.3,6.31,4.57,4.71,0,*73
1505048623.13,19557,15.75,73616.5,6.35,4.81,4.97,0,*75
1505048624.34,19558,15.75,73616.3,6.35,4.85,4.85,0,*7D
1505048625.57,19559,15.75,73616.0,6.31,4.57,4.59,0,*76
1505048626.83,19560,15.75,73616.5,6.35,4.63,4.71,0,*75
1505048628.04,19561,15.75,73614.5,6.35,4.37,4.49,0,*7E
1505048629.25,19562,15.75,73618.3,6.31,4.37,4.49,0,*79
1505048630.49,19563,15.75,73614.3,6.35,4.53,4.63,0,*76
1505048631.75,19564,15.75,73616.0,6.35,4.71,4.75,0,*76
1505048633.01,19565,15.75,73614.5,6.35,4.59,4.59,0,*73
1505048634.24,19566,15.75,73612.5,6.35,4.49,4.63,0,*78
1505048635.48,19567,15.75,73610.8,6.37,4.71,4.75,0,*77
1505048636.71,19568,15.75,73614.0,6.35,4.71,4.81,0,*71
1505048637.92,19569,15.75,73604.0,6.37,4.71,4.81,0,*72
1505048639.09,19570,15.75,73604.5,6.37,4.85,4.85,0,*75
1505048640.27,19571,15.75,73602.8,6.37,4.85,4.89,0,*78
1505048641.5,19572,15.75,73602.3,6.39,4.85,4.93,0,*7E
1505048642.74,19573,15.75,73606.0,6.39,4.89,5.01,0,*79
1505048643.91,19574,15.75,73604.5,6.37,4.81,4.81,0,*71
1505048645.15,19575,15.75,73606.3,6.39,4.89,5.01,0,*7F
1505048646.35,19576,15.75,73604.5,6.37,4.75,4.81,0,*78
1505048647.56,19577,15.75,73606.0,6.37,4.85,4.97,0,*71
1505048648.82,19578,15.75,73606.0,6.39,5.01,5.01,0,*73
1505048650.09,19579,15.75,73604.8,6.39,4.93,5.01,0,*78
1505048651.32,19580,15.75,73610.5,6.39,4.75,4.85,0,*7B
1505048652.52,19581,15.75,73608.0,6.41,4.67,4.81,0,*72
1505048653.75,19582,15.75,73610.0,6.41,4.67,4.79,0,*76
1505048654.96,19583,15.75,73606.0,6.41,4.71,4.81,0,*77
1505048656.13,19584,15.75,73608.8,6.41,4.81,4.89,0,*77
1505048657.37,19585,15.75,73606.0,6.41,4.59,4.67,0,*73
1505048658.6,19586,15.75,73610.3,6.41,4.59,4.67,0,*70
1505048659.86,19587,15.75,73608.5,6.43,4.67,4.79,0,*71
1505048661.1,19588,15.75,73606.3,6.41,4.67,4.71,0,*74
1505048662.33,19589,15.75,73604.3,6.41,4.67,4.67,0,*72
1505048663.56,19590,15.75,73604.5,6.41,4.67,4.79,0,*75
1505048664.74,19591,15.75,73602.3,6.41,4.57,4.57,0,*7B
1505048665.94,19592,15.75,73604.3,6.41,4.57,4.59,0,*76
1505048667.17,19593,15.75,73604.5,6.41,4.67,4.79,0,*76
1505048668.4,19594,15.75,73606.8,6.43,4.79,4.89,0,*73
1505048669.63,19595,15.75,73600.3,6.43,4.89,4.93,0,*76
1505048670.84,19596,15.75,73604.0,6.41,4.89,4.93,0,*77
1505048672.04,19597,15.75,73604.3,6.43,4.81,4.81,0,*7F
1505048673.24,19598,15.75,73606.0,6.43,4.81,4.81,0,*70
1505048674.47,19599,15.75,73604.8,6.41,5.05,5.05,0,*73
1505048675.73,19600,15.75,73606.0,6.43,5.05,5.05,0,*72
1505048676.91,19601,15.75,73610.0,6.45,5.07,5.07,0,*75
1505048678.17,19602,15.75,73610.5,6.43,4.97,5.05,0,*7A
1505048679.37,19603,15.75,73610.5,6.47,5.07,5.11,0,*72
1505048680.6,19604,15.75,73610.3,6.47,4.81,4.93,0,*71
1505048681.83,19605,15.75,73608.8,6.45,4.63,4.75,0,*76
1505048683.04,19606,15.75,73606.8,6.45,4.53,4.63,0,*71
1505048684.27,19607,15.75,73610.5,6.45,4.63,4.71,0,*70
1505048685.5,19608,15.75,73604.5,6.45,4.63,4.63,0,*7C
1505048686.7,19609,15.75,73606.0,6.45,4.75,4.81,0,*76
1505048687.87,19610,15.75,73604.3,6.45,4.81,4.85,0,*71
1505048689.11,19611,15.75,73606.0,6.47,4.85,4.97,0,*75
1505048690.34,19612,15.75,73604.3,6.45,4.93,4.97,0,*73
1505048691.6,19613,15.75,73604.8,6.47,4.97,4.97,0,*74
1505048692.8,19614,15.75,73600.0,6.45,4.85,4.97,0,*72
1505048694.0,19615,15.75,73598.0,6.45,4.85,4.93,0,*77
1505048695.23,19616,15.75,73598.3,6.47,4.75,4.81,0,*7A
1505048696.49,19617,15.75,73600.3,6.47,4.63,4.75,0,*77
1505048697.69,19618,15.75,73596.0,6.47,4.81,4.85,0,*7B
1505048698.95,19619,15.75,73598.5,6.47,4.93,5.01,0,*74
1505048700.21,19620,15.75,73598.5,6.47,4.93,5.01,0,*7E
1505048701.45,19621,15.75,73598.5,6.47,4.97,5.07,0,*7D
1505048702.68,19622,15.75,73598.0,6.49,4.97,5.05,0,*72
1505048703.94,19623,15.75,73596.8,6.51,4.93,4.97,0,*74
1505048705.15,19624,15.75,73596.8,6.49,4.89,4.97,0,*71
1505048706.39,19625,15.75,73592.8,6.49,5.01,5.05,0,*7B
1505048707.57,19626,15.75,73598.5,6.49,5.07,5.15,0,*7F
1505048708.8,19627,15.75,73596.3,6.51,4.75,4.85,0,*7B
1505048710.03,19628,15.75,73598.3,6.49,4.67,4.63,0,*76
1505048711.21,19629,15.75,73596.5,6.49,4.53,4.57,0,*77
1505048712.44,19630,15.75,73592.8,6.49,4.67,4.67,0,*7B
1505048713.68,19631,15.75,73596.8,6.49,4.79,4.79,0,*7A
1505048714.88,19632,15.75,73596.0,6.49,4.79,4.89,0,*76
1505048716.08,19633,15.75,73602.3,6.49,4.89,4.97,0,*77
1505048717.31,19634,15.75,73596.8,6.51,4.79,4.89,0,*79
1505048718.55,19635,15.75,73602.0,6.51,4.89,4.93,0,*7C
1505048719.76,19636,15.75,73600.5,6.49,4.85,4.93,0,*7A
1505048720.99,19637,15.75,73602.0,6.49,4.75,4.79,0,*70
1505048722.19,19638,15.75,73600.3,6.49,4.79,4.89,0,*7C
1505048723.42,19639,15.75,73602.8,6.51,4.89,5.05,0,*7E
1505048724.66,19640,15.75,73604.8,6.49,4.93,4.97,0,*78
1505048725.87,19641,15.75,73606.0,6.49,4.89,4.97,0,*72
1505048727.11,19642,15.75,73604.8,6.51,5.05,5.07,0,*75
1505048728.37,19643,15.75,73604.5,6.51,5.01,5.05,0,*72
1505048729.58,19644,15.75,73604.8,6.51,5.15,5.19,0,*7D
1505048730.83,19645,15.75,73606.0,6.51,5.27,5.27,0,*70
1505048732.06,19646,15.75,73604.3,6.51,5.19,5.27,0,*7E
1505048733.27,19647,15.75,73604.5,6.51,5.07,5.19,0,*7D
1505048734.51,19648,15.75,73604.8,6.51,5.05,5.07,0,*7F
1505048735.77,19649,15.75,73606.5,6.53,5.01,5.05,0,*7A
1505048736.97,19650,15.75,73606.3,6.53,5.07,5.15,0,*75
1505048738.17,19651,15.75,73606.3,6.53,5.15,5.15,0,*77
1505048739.39,19652,15.75,73610.0,6.53,5.19,5.19,0,*74
1505048740.59,19653,15.75,73606.0,6.53,5.15,5.19,0,*79
1505048741.81,19654,15.75,73606.8,6.57,5.11,5.23,0,*77
1505048743.02,19655,15.75,73608.0,6.57,5.07,5.19,0,*78
1505048744.22,19656,15.75,73604.5,6.53,5.15,5.19,0,*7C
1505048745.44,19657,15.75,73608.3,6.57,5.23,5.23,0,*75
1505048746.64,19658,15.75,73606.8,6.57,5.23,5.29,0,*70
1505048747.85,19659,15.75,73604.3,6.57,5.23,5.29,0,*71
1505048749.07,19660,15.75,73606.8,6.57,5.19,5.23,0,*78
1505048750.31,19661,15.75,73602.5,6.57,4.97,5.07,0,*78
1505048751.54,19662,15.75,73594.8,6.61,4.79,4.85,0,*75
1505048752.77,19663,15.75,73596.3,6.59,4.67,4.79,0,*73
1505048753.95,19664,15.75,73596.5,6.59,4.85,4.89,0,*77
1505048755.17,19665,15.75,73596.8,6.59,5.01,5.07,0,*7C
1505048756.38,19666,15.75,73598.0,6.59,5.01,5.07,0,*7F
1505048757.57,19667,15.75,73592.3,6.59,5.07,5.15,0,*7B
1505048758.75,19668,15.75,73592.8,6.59,5.11,5.15,0,*73
1505048759.96,19669,15.75,73596.3,6.61,5.07,5.11,0,*7A
1505048761.18,19670,15.75,73598.8,6.59,5.01,5.11,0,*7F
1505048762.37,19671,15.75,73598.8,6.59,5.07,5.11,0,*78
1505048763.56,19672,15.75,73602.8,6.59,5.07,5.23,0,*7A
1505048764.77,19673,15.75,73600.5,6.61,5.11,5.23,0,*77
1505048765.98,19674,15.75,73606.8,6.61,5.15,5.23,0,*74
1505048767.17,19675,15.75,73608.0,6.63,5.11,5.19,0,*7A
1505048768.4,19676,15.75,73608.3,6.61,5.23,5.27,0,*77
1505048769.6,19677,15.75,73614.8,6.61,5.15,5.15,0,*72
1505048770.82,19678,15.75,73614.0,6.61,5.23,5.23,0,*7D
1505048772.04,19679,15.75,73614.5,6.61,5.27,5.33,0,*79
1505048773.22,19680,15.75,73610.0,6.63,5.15,5.19,0,*74
1505048774.43,19681,15.75,73604.0,6.63,5.11,5.05,0,*7C
1505048775.69,19682,15.75,73604.8,6.65,4.93,5.05,0,*72
1505048776.94,19683,15.75,73604.0,6.65,5.01,5.05,0,*79
1505048778.15,19684,15.75,73604.5,6.65,5.11,5.15,0,*7E
1505048779.37,19685,15.75,73604.0,6.65,5.27,5.37,0,*7A
1505048780.54,19686,15.75,73606.8,6.63,5.41,5.49,0,*76
1505048781.77,19687,15.75,73606.8,6.65,5.49,5.51,0,*70
1505048782.95,19688,15.75,73610.3,6.67,5.41,5.41,0,*74
1505048784.13,19689,15.75,73614.5,6.67,5.33,5.41,0,*70
1505048785.35,19690,15.75,73610.8,6.69,5.45,5.55,0,*72
1505048786.55,19691,15.75,73610.8,6.69,5.37,5.45,0,*77
1505048787.77,19692,15.75,73614.5,6.69,5.27,5.33,0,*74
1505048789.0,19693,15.75,73614.0,6.69,4.75,4.85,0,*7F
1505048790.2,19694,15.75,73608.3,6.71,4.89,4.97,0,*71
1505048791.41,19695,15.75,73602.0,6.71,4.85,4.97,0,*7C
1505048792.64,19696,15.75,73598.8,6.69,5.23,5.27,0,*71
1505048793.84,19697,15.75,73596.8,6.71,5.27,5.37,0,*7C
1505048795.04,19698,15.75,73598.5,6.71,5.23,5.27,0,*76
1505048796.25,19699,15.75,73598.8,6.71,5.05,5.07,0,*71
1505048797.48,19700,15.75,73596.5,6.73,5.27,5.23,0,*74
1505048798.67,19701,15.75,73604.3,6.71,5.23,5.23,0,*73
1505048799.86,19702,15.75,73602.3,6.73,5.29,5.29,0,*72
1505048801.08,19703,15.75,73604.3,6.73,5.27,5.29,0,*7D
1505048802.27,19704,15.75,73604.5,6.73,5.29,5.37,0,*7B
1505048803.48,19705,15.75,73604.0,6.73,5.41,5.59,0,*7C
1505048804.68,19706,15.75,73606.0,6.79,5.41,5.51,0,*7D
1505048805.85,19707,15.75,73608.5,6.79,5.63,5.67,0,*79
1505048807.05,19708,15.75,73606.0,6.81,5.49,5.67,0,*79
1505048808.24,19709,15.75,73604.0,6.83,5.23,5.33,0,*77
1505048809.44,19710,15.75,73606.3,6.81,5.23,5.33,0,*7D
1505048810.64,19711,15.75,73602.8,6.81,5.19,5.29,0,*7E
1505048811.84,19712,15.75,73602.5,6.81,5.11,5.19,0,*76
1505048813.03,19713,15.75,73602.8,6.83,5.19,5.19,0,*7D
1505048814.22,19714,15.75,73606.5,6.83,5.11,5.11,0,*7A
1505048815.43,19715,15.75,73606.0,6.83,4.97,5.07,0,*73
1505048816.64,19716,15.75,73602.5,6.83,4.97,5.11,0,*77
1505048817.86,19717,15.75,73606.3,6.83,5.01,5.19,0,*70
1505048819.09,19718,15.75,73610.0,6.81,4.97,5.07,0,*7C
1505048820.32,19719,15.75,73606.5,6.83,4.97,4.97,0,*77
1505048821.5,19720,15.75,73612.5,6.83,5.07,5.11,0,*7A
1505048822.69,19721,15.75,73612.8,6.83,5.11,5.23,0,*7D
1505048823.86,19722,15.75,73614.3,6.83,5.45,5.45,0,*7F
1505048825.03,19723,15.75,73614.3,6.85,5.49,5.49,0,*78
1505048826.24,19724,15.75,73612.0,6.87,5.33,5.33,0,*7D
1505048827.47,19725,15.75,73610.0,6.85,5.05,5.05,0,*7E
1505048828.67,19726,15.75,73614.0,6.87,4.81,4.89,0,*77
1505048829.9,19727,15.75,73614.0,6.85,4.79,4.71,0,*74
1505048831.17,19728,15.75,73614.8,6.87,4.93,5.01,0,*7B
1505048832.35,19729,15.75,73614.3,6.89,4.45,4.45,0,*7E
1505048833.52,19730,15.75,73606.8,6.85,4.41,4.53,0,*79
1505048834.78,19731,15.75,73606.5,6.87,4.63,4.67,0,*7D
1505048835.98,19732,15.75,73606.3,6.87,4.81,4.89,0,*72
1505048837.25,19733,15.75,73600.8,6.87,4.93,5.01,0,*71
1505048838.48,19734,15.75,73602.8,6.89,4.93,4.97,0,*76
1505048839.7,19735,15.75,73600.5,6.89,5.05,5.07,0,*71
1505048840.87,19736,15.75,73606.0,6.89,4.85,4.81,0,*74
1505048842.05,19737,15.75,73604.5,6.89,4.81,4.81,0,*71
1505048843.26,19738,15.75,73606.0,6.91,4.89,4.89,0,*77
1505048844.46,19739,15.75,73606.8,6.91,4.85,4.85,0,*76
1505048845.64,19740,15.75,73608.5,6.89,4.81,4.85,0,*75
1505048846.9,19741,15.75,73610.3,6.91,4.75,4.79,0,*75
1505048848.09,19742,15.75,73606.0,6.89,4.85,4.85,0,*73
1505048849.29,19743,15.75,73608.3,6.91,4.49,4.53,0,*70
1505048850.52,19744,15.75,73606.3,6.93,4.63,4.75,0,*79
1505048851.78,19745,15.75,73612.0,6.91,4.75,4.79,0,*71
1505048853.01,19746,15.75,73610.0,6.91,4.79,4.89,0,*71
1505048854.21,19747,15.75,73612.3,6.89,4.75,4.89,0,*75
1505048855.45,19748,15.75,73610.3,6.89,4.79,4.71,0,*71
1505048856.63,19749,15.75,73610.3,6.89,4.33,4.45,0,*79
1505048857.86,19750,15.75,73610.3,6.91,4.53,4.59,0,*73
1505048859.13,19751,15.75,73610.3,6.91,4.59,4.63,0,*71
1505048860.34,19752,15.75,73610.0,6.89,4.71,4.81,0,*7D
1505048861.6,19753,15.75,73610.5,6.91,4.71,4.79,0,*72
1505048862.87,19754,15.75,73606.0,6.91,4.75,4.75,0,*7D
1505048864.07,19755,15.75,73604.0,6.89,4.49,4.59,0,*74
1505048865.27,19756,15.75,73606.5,6.89,4.45,4.59,0,*7B
1505048866.53,19757,15.75,73604.0,6.91,4.63,4.67,0,*7A
1505048867.76,19758,15.75,73604.3,6.89,4.75,4.75,0,*78
1505048869.02,19759,15.75,73606.5,6.91,4.75,4.79,0,*7C
1505048870.26,19760,15.75,73608.0,6.89,4.67,4.75,0,*70
1505048871.49,19761,15.75,73606.5,6.91,4.79,4.85,0,*78
1505048872.73,19762,15.75,73610.5,6.91,4.75,4.85,0,*77
1505048873.96,19763,15.75,73612.0,6.91,4.79,4.89,0,*76
1505048875.19,19764,15.75,73610.3,6.91,4.79,4.89,0,*71
1505048876.46,19765,15.75,73608.8,6.91,4.71,4.75,0,*7B
1505048877.72,19766,15.75,73612.8,6.91,4.59,4.75,0,*72
1505048878.99,19767,15.75,73608.5,6.91,4.59,4.63,0,*74
1505048880.25,19768,15.75,73614.5,6.91,4.59,4.75,0,*7C
1505048881.43,19769,15.75,73612.0,6.93,4.15,4.27,0,*70
1505048882.64,19770,15.75,73612.3,6.91,4.41,4.53,0,*78
1505048883.86,19771,15.75,73608.8,6.91,4.49,4.59,0,*7B
1505048885.04,19772,15.75,73612.5,6.89,4.37,4.49,0,*79
1505048886.24,19773,15.75,73608.5,6.93,4.49,4.59,0,*7B
1505048887.51,19774,15.75,73614.5,6.91,4.59,4.71,0,*75
1505048888.74,19775,15.75,73612.8,6.91,4.53,4.63,0,*7D
1505048890.01,19776,15.75,73610.8,6.91,4.59,4.71,0,*77
1505048891.25,19777,15.75,73612.3,6.89,4.67,4.71,0,*72
1505048892.51,19778,15.75,73614.5,6.91,4.59,4.75,0,*7D
1505048893.78,19779,15.75,73614.0,6.91,4.63,4.75,0,*75
1505048895.04,19780,15.75,73616.0,6.91,4.71,4.79,0,*7C
1505048896.25,19781,15.75,73612.3,6.89,4.71,4.81,0,*73
1505048897.48,19782,15.75,73614.3,6.91,4.79,4.85,0,*75
1505048898.69,19783,15.75,73610.8,6.91,4.85,4.89,0,*7B
1505048899.93,19784,15.75,73612.0,6.91,4.89,4.97,0,*7F
1505048901.16,19785,15.75,73612.0,6.91,4.85,4.97,0,*72
1505048902.37,19786,15.75,73616.8,6.91,4.85,4.89,0,*7E
1505048903.63,19787,15.75,73612.5,6.91,4.75,4.75,0,*73
1505048904.9,19788,15.75,73616.3,6.91,4.71,4.75,0,*78
1505048906.16,19789,15.75,73612.0,6.91,4.63,4.75,0,*7A
1505048907.43,19790,15.75,73614.8,6.91,4.59,4.63,0,*7C
1505048908.6,19791,15.75,73612.8,6.93,4.41,4.49,0,*7E
1505048909.81,19792,15.75,73612.3,6.91,4.37,4.41,0,*76
1505048911.04,19793,15.75,73612.0,6.91,4.49,4.59,0,*77
1505048912.31,19794,15.75,73614.3,6.91,4.71,4.71,0,*71
1505048913.57,19795,15.75,73610.0,6.91,4.79,4.75,0,*7C
1505048914.84,19796,15.75,73614.8,6.91,4.71,4.75,0,*77
1505048916.1,19797,15.75,73610.5,6.91,4.63,4.63,0,*72
1505048917.35,19798,15.75,73612.0,6.89,4.71,4.75,0,*70
1505048918.61,19799,15.75,73608.0,6.91,4.75,4.75,0,*7C
1505048919.87,19800,15.75,73610.0,6.91,4.75,4.75,0,*73
1505048921.1,19801,15.75,73610.5,6.93,4.75,4.79,0,*7C
1505048922.27,19802,15.75,73612.5,6.93,4.85,4.89,0,*7F
1505048923.45,19803,15.75,73612.3,6.93,4.85,4.89,0,*7E
1505048924.68,19804,15.75,73612.0,6.95,4.89,4.93,0,*78
1505048925.85,19805,15.75,73612.0,6.93,4.85,4.89,0,*78
1505048927.03,19806,15.75,73610.3,6.93,4.85,4.89,0,*7B
1505048928.26,19807,15.75,73608.3,6.93,4.75,4.79,0,*7A
1505048929.46,19808,15.75,73614.3,6.93,4.53,4.59,0,*73
1505048930.69,19809,15.75,73614.5,6.95,4.53,4.63,0,*7D
1505048931.86,19810,15.75,73610.8,6.93,4.15,4.19,0,*7C
1505048933.04,19811,15.75,73612.5,6.93,3.93,3.93,0,*71